Regional Weather Roundup
Issued by NWS Boston, MA

Current Version | Previous Version | Text Only | Print | Product List | Glossary Off
Versions: 1 2 3 4 5 6 7 8 9 10 11 12 13 14 15 16 17 18 19 20 21 22 23 24 25 26 27 28
000 ASUS41 KBOX 190510 RWRBOX REGIONAL WEATHER ROUNDUP NATIONAL WEATHER SERVICE TAUNTON MA 1200 AM EST SUN NOV 19 2017 NOTE: "FAIR" INDICATES FEW OR NO CLOUDS BELOW 12,000 FEET WITH NO SIGNIFICANT WEATHER AND/OR OBSTRUCTIONS TO VISIBILITY. MAZALL-190600- EASTERN MASSACHUSETTS CITY SKY/WX TMP DP RH WIND PRES REMARKS BOSTON LGT RAIN 52 49 89 SW9 29.48F BEVERLY LGT RAIN 51 49 92 S6 29.48F LAWRENCE LGT RAIN 51 47 86 S5 29.49F BEDFORD LGT RAIN 45 43 93 CALM 29.46F BLUE HILL NOT AVBL NORWOOD LGT RAIN 53 51 93 S6 29.48F MARSHFIELD LGT RAIN 55 52 88 SW8G21 29.49F PLYMOUTH LGT RAIN 56 52 86 SW15G22 29.51F TAUNTON LGT RAIN 53 52 96 VRB7 29.50F FOG NEW BEDFORD CLOUDY 54 52 93 S9 29.51F $$ MAZALL-190600- CAPE COD AND THE ISLANDS CITY SKY/WX TMP DP RH WIND PRES REMARKS FALMOUTH CLOUDY 57 54 88 SW15 29.54F HYANNIS CLOUDY 57 52 83 S10 29.53F CHATHAM LGT RAIN 55 54 96 S10G20 29.56F PROVINCETOWN LGT RAIN 54 52 93 SW15 29.53F NANTUCKET CLOUDY 56 55 97 S13 29.57F MARTHAS VNYRD CLOUDY 58 54 86 SW13 29.54F $$ MAZALL-190600- CENTRAL AND WESTERN MASSACHUSETTS CITY SKY/WX TMP DP RH WIND PRES REMARKS WORCESTER LGT RAIN 46 43 89 S13 29.43F FITCHBURG LGT RAIN 41 39 93 CALM 29.46F ORANGE LGT RAIN 45 45 100 S7 29.42F SPRINGFIELD LGT RAIN 37 37 100 CALM 29.41F WESTFIELD LGT RAIN 35 35 100 CALM 29.43F NORTH ADAMS LGT RAIN 46 42 86 SE13G23 29.36F PITTSFIELD CLOUDY 46 40 79 S14G23 29.36F $$ RIZALL-190600- RHODE ISLAND CITY SKY/WX TMP DP RH WIND PRES REMARKS PROVIDENCE CLOUDY 54 54 100 S10 29.49F NEWPORT CLOUDY 56 54 93 S12G21 29.50F BLOCK ISLAND CLOUDY 59 55 87 S21G30 29.49F SMITHFIELD LGT RAIN 51 50 96 S8 29.47F WESTERLY CLOUDY 58 56 93 S13 29.49F $$ CTZALL-190600- CONNECTICUT CITY SKY/WX TMP DP RH WIND PRES REMARKS BRADLEY INTL LGT RAIN 37 36 96 CALM 29.43F HARTFORD CLOUDY 42 41 96 CALM 29.43F FOG BRIDGEPORT CLOUDY 57 53 86 S17 29.43F DANBURY MOCLDY 50 47 89 SE7 29.42F GROTON LGT RAIN 57 54 89 S21 29.46F NEW HAVEN CLOUDY 57 53 86 S13G21 29.44F CHESTER CLOUDY 54 54 100 S10 29.45F MERIDEN CLOUDY 49 48 97 S3 29.43F WILLIMANTIC CLOUDY 50 47 89 CALM 29.46F OXFORD CLOUDY 50 50 100 S14 29.43F FOG $$ MEZ002-015-021-024-NHZ003-005-008-011-012-014-VTZ005-008-190600- NORTHERN NEW ENGLAND CITY SKY/WX TMP DP RH WIND PRES REMARKS PORTLAND ME LGT RAIN 43 43 100 CALM 29.49F FOG BANGOR ME LGT RAIN 40 38 93 SE3 29.55F CONCORD NH CLOUDY 35 33 92 W3 29.46F FOG MANCHESTER NH LGT RAIN 38 37 97 S3 29.45F FOG NASHUA NH MIX PCPN 37 37 100 CALM 29.46F PORTSMOUTH NH LGT RAIN 48 47 95 S3 29.46F FOG JAFFREY NH LGT RAIN 46 45 96 S9G20 29.42F KEENE NH RAIN 37 37 100 CALM 29.41F FOG BURLINGTON VT CLOUDY 39 37 92 E3 29.29F MT. WASHINGTON FRZ RAIN 28 28 100 S41G51 N/A VSB 0 WCI 11 $$ NYZ052-076-190600- EASTERN NEW YORK CITY SKY/WX TMP DP RH WIND PRES REMARKS ALBANY LGT RAIN 46 41 82 S15G29 29.33F NEW YORK CITY MOCLDY 56 50 80 S7 29.40F $$ ANZALL-190600- MARINE OBSERVATIONS STATION/POSITION TIME TEMP WIND PRES VSBY WAVE AIR SEA DIR/SP/G HT/PER (UTC) (F) (DEG/KT/KT) (MB) (MI) (FT/S) BOSTON BUOY 0450 54 51 200/ 16/ 17 997.7F 2/ 4 BUZZARDS BAY 0400 57 220/ 20/ 21 1000.7 NANTUCKET SOUND 0450 55 50 200/ 14/ 16 1000.7F 2/ 3 MASS BAY-STELLWA 0404 52 50 150/ 14/ 16 998.3F 2/ 4 ISLE OF SHOALS 0400 51 150/ 19/ 21 998.7F S OF BLOCK IS NOT AVBL $$ ......................KEY......................... SKY/WX - SKY CONDITION/PRESENT WEATHER TMP - TEMPERATURE IN FAHRENHEIT DWPT - DEWPOINT IN FAHRENHEIT RH - RELATIVE HUMIDITY IN PERCENT WIND - DIRECTION AND SPEED IN MPH PRES - MEAN SEA LEVEL PRESSURE IN INCHES OF HG WCI - WIND CHILL INDEX VSB - VISIBILITY IN MILES HX - HEAT INDEX TC - TEMPERATURE IN CELSIUS VRB - VARIABLE WIND DIRECTION N/A - NOT AVAILABLE

USA.gov is the U.S. government's official web portal to all federal, state and local government web resources and services.